Location: ????????
(55.7667°N, 37.4833°E)
Time: 02:33:33
(UTC+00:00)

Meteor 1-21 - Pass Details

Date: 19 May 2025
Orbit: 845 x 884 km, 81.2° (Epoch: 13 June)

Event Time Altitude Azimuth Distance (km) Brightness Sun altitude
Exits shadow 23:24:55 13° 196° (SSW) 2,290 5.8 -10.2°
Maximum altitude 23:30:04 83° 285° (WNW) 864 4.3 -9.9°
Drops below altitude 10° 23:35:45 10° 14° (NNE) 2,500 8.0 -9.5°
Sets 23:38:12 0° 15° (NNE) 3,445 9.1 -9.3°
